"Pseudo-MPEC" for P10QoJ1

Created 2019 Aug 15 14:07:06 UT using Find_Orb

Click here for an explanation of pseudo-MPECs

 
 Astrometry: 
     P10QoJ1  C2019 08 08MV:.8b8@^%3eCkZQqn89\RK#b_Oog+/OCrgV]CDHIgm#HEup74RiF51
     P10QoJ1  C2019 08 089/+y^!fi0;g\\+mt(7v,Xj/Zi*Ps\I2kUAstrometry1)0QstF:WF51
     P10QoJ1  C2019 08 08]y$W';S3swCTf'^lApredacted;3f%xp5*Cc*]tg6xx=mR+AONuUF51
     P10QoJ1 ^C2019 08 11.55269800 55 05.982-08 33 55.27   ~8BLq 20.39GVNEOCP568
     P10QoJ1 ^C2019 08 11.55389200 55 06.071-08 33 56.09   ~8BLq 20.39GVNEOCP568
     P10QoJ1 ^C2019 08 11.55507800 55 06.156-08 33 56.86   ~8BLq 20.32GVNEOCP568
     P10QoJ1 pC2019 08 153b0T2wA7OkY4jdq+-q*$d\/+e7Zclick[GnDWVTwH]hN=r[M7f4.L01
     P10QoJ1 KC2019 08 15p9r,$r:8Sa,Qrcb`0cO^ZhereQW;%H(mVR,(9/`1#yfor_JjH2p/L01
     P10QoJ1 pC2019 08 15v384niE/Hmexplanationk#x,7eFhEt`_DP-0p,4bA(,fkT4]J75L01

Station data:
(568) Mauna Kea  (N19.826116 W155.472200)  US/Hawaii.
(F51) Pan-STARRS 1, Haleakala  (N20.707235 W156.255910)  US/Hawaii.
   Observers N. Primak, A. Schultz, S. Watters, J. Thiel, T. Goggia. Measurer
   PS1 Science Consortium. 1.8-m Ritchey-Chrétien + CCD.
(L01) Višnjan Observatory, Tičan  (N45.290900 E13.749300)  Croatia.
   Observers K. Korlević, E. Pettarin. Measurer E. Pettarin. 1.0-m f/2.9
   reflector + CCD.

Orbital elements:  P10QoJ1
   Perihelion 2019 Sep 24.685496 +/- 0.676 TT = 16:27:06 (JD 2458751.185496)
Epoch 2019 Aug 15.0 TT = JDT 2458710.5   Earth MOID: 0.7571   Ju: 0.8394
M 353.64588854 +/- 0.22             (J2000 ecliptic)          AutoNEOCP
n   0.15617632 +/- 0.00316          Peri.  231.88121 +/- 0.41
a   3.41501469 +/- 0.0461           Node   134.73067 +/- 0.11
e   0.4969564 +/- 0.0056            Incl.   14.99635 +/- 0.059
P   6.31                   H 18.6   G  0.15   U  8.9  
q 1.71790117 +/- 0.00404    Q 5.11212821 +/- 0.0871
From 9 observations 2019 Aug. 8-15; mean residual 0".25
Residuals in arcseconds: 
190808 F51  .05+  .05+    190811 568  .09+  .02-    190815 L01  .39+  .64-    
190808 F51  .01-  .04-    190811 568  .02+  .01-    190815 L01  .14+  .24+    
190808 F51  .04-  .00     190811 568  .11-  .03+    190815 L01  .53-  .41+    

Ephemerides (geocentric):
Date (UTC) HH   RA              Dec         delta   r     elong  mag " sig PA
---- -- -- --  -------------   -----------  ------ ------ -----  --- ---- ---
2019 08 15 14  01 00 27.001   -09 22 36.99  .92270 1.7572 130.4 20.8 .212  35
2019 08 15 15  01 00 30.209   -09 23 08.77  .92241 1.7571 130.4 20.8 .223  35
2019 08 15 16  01 00 33.414   -09 23 40.57  .92212 1.7571 130.4 20.8 .234  35
2019 08 15 17  01 00 36.617   -09 24 12.41  .92183 1.7570 130.4 20.8 .246  35
2019 08 15 18  01 00 39.818   -09 24 44.28  .92154 1.7569 130.5 20.8 .257  34
2019 08 15 19  01 00 43.016   -09 25 16.17  .92125 1.7568 130.5 20.8 .269  34
2019 08 15 20  01 00 46.211   -09 25 48.10  .92097 1.7567 130.5 20.8 .281  34
2019 08 15 21  01 00 49.405   -09 26 20.06  .92068 1.7567 130.6 20.8 .293  34
2019 08 15 22  01 00 52.596   -09 26 52.05  .92039 1.7566 130.6 20.8 .305  34
2019 08 15 23  01 00 55.784   -09 27 24.07  .92010 1.7565 130.6 20.8 .318  33
2019 08 16 00  01 00 58.970   -09 27 56.12  .91982 1.7564 130.6 20.8 .330  33
2019 08 16 01  01 01 02.154   -09 28 28.20  .91953 1.7563 130.7 20.8 .343  33
2019 08 16 02  01 01 05.335   -09 29 00.31  .91924 1.7563 130.7 20.8 .355  33
2019 08 16 03  01 01 08.514   -09 29 32.45  .91896 1.7562 130.7 20.8 .368  33
2019 08 16 04  01 01 11.691   -09 30 04.62  .91867 1.7561 130.7 20.8 .381  33
2019 08 16 05  01 01 14.865   -09 30 36.82  .91838 1.7560 130.8 20.8 .394  33
2019 08 16 06  01 01 18.037   -09 31 09.06  .91810 1.7559 130.8 20.8 .408  33
2019 08 16 07  01 01 21.206   -09 31 41.32  .91781 1.7559 130.8 20.8 .421  33
2019 08 16 08  01 01 24.373   -09 32 13.61  .91753 1.7558 130.8 20.8 .435  32
2019 08 16 09  01 01 27.537   -09 32 45.94  .91724 1.7557 130.9 20.8 .449  32
2019 08 16 10  01 01 30.699   -09 33 18.29  .91696 1.7556 130.9 20.8 .462  32
2019 08 16 11  01 01 33.859   -09 33 50.67  .91667 1.7556 130.9 20.8 .476  32
2019 08 16 12  01 01 37.016   -09 34 23.09  .91639 1.7555 131.0 20.8 .491  32
2019 08 16 13  01 01 40.171   -09 34 55.53  .91611 1.7554 131.0 20.8 .505  32
2019 08 16 14  01 01 43.323   -09 35 28.01  .91582 1.7553 131.0 20.8 .519  32
2019 08 16 15  01 01 46.473   -09 36 00.51  .91554 1.7552 131.0 20.8 .534  32
2019 08 16 16  01 01 49.620   -09 36 33.05  .91525 1.7552 131.1 20.8 .549  32
2019 08 16 17  01 01 52.765   -09 37 05.62  .91497 1.7551 131.1 20.8 .563  32
2019 08 16 18  01 01 55.908   -09 37 38.21  .91469 1.7550 131.1 20.8 .578  32
2019 08 16 19  01 01 59.048   -09 38 10.84  .91441 1.7549 131.1 20.8 .594  32
2019 08 16 20  01 02 02.185   -09 38 43.49  .91412 1.7548 131.2 20.8 .609  32
2019 08 16 21  01 02 05.321   -09 39 16.18  .91384 1.7548 131.2 20.8 .624  32
2019 08 16 22  01 02 08.453   -09 39 48.90  .91356 1.7547 131.2 20.8 .640  32
2019 08 16 23  01 02 11.583   -09 40 21.64  .91328 1.7546 131.2 20.8 .656  32
2019 08 17 00  01 02 14.711   -09 40 54.42  .91300 1.7545 131.3 20.8 .671  32
2019 08 17 01  01 02 17.837   -09 41 27.23  .91272 1.7545 131.3 20.8 .687  32
2019 08 17 02  01 02 20.959   -09 42 00.06  .91244 1.7544 131.3 20.8 .704  32
2019 08 17 03  01 02 24.080   -09 42 32.93  .91216 1.7543 131.3 20.8 .720  32
2019 08 17 04  01 02 27.198   -09 43 05.82  .91188 1.7542 131.4 20.8 .736  31
2019 08 17 05  01 02 30.313   -09 43 38.75  .91160 1.7542 131.4 20.8 .753  31
2019 08 17 06  01 02 33.426   -09 44 11.71  .91132 1.7541 131.4 20.8 .770  31
2019 08 17 07  01 02 36.536   -09 44 44.69  .91104 1.7540 131.5 20.8 .786  31
2019 08 17 08  01 02 39.644   -09 45 17.71  .91076 1.7539 131.5 20.8 .803  31
2019 08 17 09  01 02 42.750   -09 45 50.76  .91048 1.7538 131.5 20.8 .821  31
2019 08 17 10  01 02 45.853   -09 46 23.83  .91020 1.7538 131.5 20.8 .838  31
2019 08 17 11  01 02 48.953   -09 46 56.94  .90992 1.7537 131.6 20.8 .855  31
2019 08 17 12  01 02 52.051   -09 47 30.07  .90964 1.7536 131.6 20.8 .873  31
2019 08 17 13  01 02 55.147   -09 48 03.24  .90936 1.7535 131.6 20.8 .891  31